Weather History for KMQE - March, 2013

Change the Weather History Date:

Sunday, March 17, 2013

  Actual Average (KBOS) Record (KBOS)
Temperature  
Mean Temperature 30 °F 38 °F  
Max Temperature 37 °F 46 °F 70 °F (1990)
Min Temperature 23 °F 31 °F 10 °F (1916)
Degree Days  
Heating Degree Days 35 27  
Month to date heating degree days 487  
Since 1 July heating degree days 4529  
Cooling Degree Days 0 0  
Month to date cooling degree days 0  
Year to date cooling degree days 0  
Moisture  
Dew Point 8 °F    
Average Humidity 42    
Maximum Humidity 63    
Minimum Humidity 27    
Precipitation  
Precipitation 0.00 in 0.14 in 1.58 in (1968)
Month to date precipitation 2.25  
Year to date precipitation 8.86  
Sea Level Pressure  
Sea Level Pressure 30.06 in    
Wind  
Wind Speed 10 mph (NNW)    
Max Wind Speed 18 mph    
Max Gust Speed 28 mph    
T = Trace of Precipitation, MM = Missing Value Source: NWS Daily Summary

Daily Weather History Graph

Daily Weather History Graph

Search for Another Location

Airport or City:

Trip Planner

Search our weather history database for the weather conditions in past years. The results will help you decide how hot, cold, wet, or windy it might be!

Date:

Astronomy

Mar. 17, 2013 Rise Set
Actual Time 6:52 AM EDT 6:53 PM EDT
Civil Twilight 6:24 AM EDT 7:21 PM EDT
Nautical Twilight 5:52 AM EDT 7:54 PM EDT
Astronomical Twilight 5:18 AM EDT 8:27 PM EDT
Moon 9:56 AM EDT (3/17) 12:04 AM EDT (3/17)
Length of Visible Light 12h 56m
Length of Day
12h 00m
Waxing Crescent, 31% of the Moon is Illuminated
Mar 17
Waxing Crescent
Mar 19
First Quarter
Mar 27
Full
Apr 3
Last Quarter
Apr 10
New

Hourly Weather History & Observations

Time (EDT) Temp. Windchill Dew Point Humidity Pressure Visibility Wind Dir Wind Speed Gust Speed Precip Events Conditions
12:54 AM 28.9 °F 22.8 °F 16.0 °F 58% 29.89 in - North 5.8 mph - N/A   Unknown
1:54 AM 28.9 °F 19.8 °F 10.9 °F 47% 29.90 in - NNE 10.4 mph - N/A   Unknown
2:54 AM 27.0 °F 18.7 °F 9.0 °F 47% 29.90 in - North 8.1 mph - N/A   Unknown
3:54 AM 27.0 °F 19.5 °F 10.0 °F 49% 29.90 in - NNE 6.9 mph - N/A   Unknown
4:54 AM 25.0 °F 15.5 °F 12.0 °F 58% 29.93 in - NNW 9.2 mph - N/A   Unknown
5:54 AM 24.1 °F 15.2 °F 10.9 °F 57% 29.94 in - NNW 8.1 mph - N/A   Unknown
6:54 AM 23.0 °F 13.9 °F 12.0 °F 63% 29.97 in - WNW 8.1 mph - N/A   Unknown
7:54 AM 25.0 °F 17.1 °F 12.9 °F 60% 30.00 in - WNW 6.9 mph - N/A   Unknown
8:54 AM 28.0 °F 18.1 °F 14.0 °F 56% 30.03 in - NW 11.5 mph 17.3 mph N/A   Unknown
9:54 AM 28.9 °F 18.6 °F 14.0 °F 54% 30.04 in - NW 12.7 mph 25.3 mph N/A   Unknown
10:54 AM 33.1 °F 22.2 °F 9.0 °F 37% 30.03 in - West 17.3 mph 21.9 mph N/A   Unknown
11:54 AM 34.0 °F 26.6 °F 10.0 °F 37% 30.04 in - WNW 9.2 mph 21.9 mph N/A   Unknown
12:54 PM 37.9 °F 30.0 °F 10.9 °F 33% 30.04 in - WNW 12.7 mph 25.3 mph N/A   Unknown
1:54 PM 36.0 °F 27.5 °F 8.1 °F 31% 30.03 in - NNW 12.7 mph 23.0 mph N/A   Unknown
2:54 PM 36.0 °F 25.6 °F 5.0 °F 27% 30.04 in - NW 18.4 mph 27.6 mph N/A   Unknown
3:54 PM 35.1 °F 25.2 °F 3.9 °F 27% 30.07 in - NW 16.1 mph 27.6 mph N/A   Unknown
4:54 PM 36.0 °F 26.7 °F 5.0 °F 27% 30.09 in - NNW 15.0 mph 25.3 mph N/A   Unknown
5:54 PM 34.0 °F 26.6 °F 3.0 °F 27% 30.12 in - WNW 9.2 mph 23.0 mph N/A   Unknown
6:54 PM 30.0 °F 22.4 °F 5.0 °F 35% 30.16 in - NW 8.1 mph 16.1 mph N/A   Unknown
7:54 PM 28.9 °F 21.1 °F 5.0 °F 36% 30.21 in - NNW 8.1 mph - N/A   Unknown
8:54 PM 28.0 °F 18.6 °F 3.9 °F 36% 30.24 in - NNW 10.4 mph - N/A   Unknown
9:54 PM 27.0 °F 19.5 °F 3.9 °F 37% 30.27 in - North 6.9 mph - N/A   Unknown
10:54 PM 27.0 °F 16.7 °F 1.0 °F 33% 30.30 in - NNW 11.5 mph 17.3 mph N/A   Unknown
11:54 PM 25.0 °F 14.8 °F 3.0 °F 39% 30.32 in - North 10.4 mph 16.1 mph N/A   Unknown